Simultaneous Nadir Overpasses (SNOs) Predictions

Prediction of SNOs between GOES-16 and NOAA-19 Satellite Orbit:

Table of predicted SNOs for the next 14.0 days since TLE Epoch: 6/6/2025
Index Date Time (GOES-16) GOES-16 Lat,Lon NOAA-19 Lat,Lon Distance(km) Time Diff (sec)
1 06/08/2025 05:07:24 -0.04,-105.66 -0.89,-109.31 417.20 80
2 06/09/2025 04:54:48 -0.04,-106.18 -0.03,-106.28 10.77 80
3 06/10/2025 04:39:32 -0.03,-106.70 0.77,-103.23 396.29 80
4 06/11/2025 17:13:24 0.03,-107.54 0.77,-110.76 367.55 80
5 06/12/2025 16:58:09 0.03,-108.06 -0.07,-107.73 38.84 80
6 06/13/2025 16:45:32 0.02,-108.58 -0.86,-104.68 445.16 80
7 06/15/2025 05:19:32 -0.02,-109.35 -0.67,-112.24 329.92 80
8 06/16/2025 05:04:16 -0.01,-109.87 0.14,-109.20 76.55 80
9 06/17/2025 04:51:40 -0.01,-110.39 0.95,-106.16 483.17 80
10 06/18/2025 17:25:34 0.01,-111.23 0.57,-113.70 281.45 80
11 06/19/2025 17:10:17 0.01,-111.75 -0.23,-110.65 124.98 80
